Home > Weather > Charlottesville > Past weeks

Flag for USA Weather for the Past 2 Weeks in Charlottesville, Virginia, USA

Now
52 °F

Fog.


Feels Like: 49 °F
Forecast: 53 / 60 °F
Wind: 9 mph from Northeast

Location: Charlottesville-Albemarle Airport

Current Time: May 5, 2016 at 7:21:16 AM

Latest Report: May 5, 2016 at 6:53 AM


Visibility: 2 mi

Pressure: 29.60 "Hg

Humidity: 93%

Dew Point: 50 °F

Location of CharlottesvilleLocation

Historic Weather in Charlottesville — Graph

°F

Charlottesville Temperature Yesterday

Maximum temperature yesterday: 67 °F (at 5:53 PM)
Minimum temperature yesterday: 56 °F (at 5:53 AM)
Average temperature yesterday: 60 °F

High & Low Weather Summary for the Past Weeks

 TemperatureHumidityPressure
High87 °F (May 2, 3:53 PM)97% (May 2, 1:53 AM)30.31 "Hg (May 2, 1:53 AM)
Low47 °F (Apr 24, 6:53 AM)18% (Apr 20, 1:53 PM)29.58 "Hg (May 4, 5:53 PM)
Average62 °F70%29.93 "Hg
* Reported Apr 20 5:53 AM — May 5 5:53 AM, Charlottesville, Weather by CustomWeather, © 2016

Note: Actual official high and low records may vary slightly from our data, if they occured in-between our weather recording intervals... More about our weather records

Advertising

Charlottesville Weather History for the Previous 24 Hours

Scroll right to see more
 ConditionsComfort  
Time TempWeatherWind HumidityBarometerVisibility
5:53 AM
Thu, May 5
53 °FLight rain. Fog.9 mph89%29.60 "Hg2 mi
4:53 AM53 °FMostly cloudy.10 mph93%29.60 "Hg8 mi
3:53 AM54 °FMostly cloudy.6 mph90%29.62 "Hg10 mi
2:53 AM54 °FLow clouds.6 mph90%29.63 "Hg10 mi
1:53 AM55 °FMostly cloudy.8 mph90%29.64 "Hg10 mi
12:53 AM56 °FOvercast.7 mph90%29.65 "Hg10 mi
11:53 PM
Wed, May 4
57 °FLight rain. Mostly cloudy.5 mph93%29.65 "Hg10 mi
10:53 PM56 °FLight rain. Overcast.7 mph90%29.66 "Hg9 mi
9:53 PM57 °FThundershowers. Fog.6 mph87%29.65 "Hg4 mi
9:00 PM59 °FCloudy.6 mph78%29.65 "Hg10 mi
7:53 PM61 °FMostly cloudy.8 mph72%29.62 "Hg10 mi
6:53 PM64 °FPartly sunny.10 mph65%29.59 "Hg10 mi
5:53 PM67 °FPassing clouds.3 mph57%29.58 "Hg10 mi
4:53 PM65 °FMore clouds than sun.3 mph59%29.59 "Hg10 mi
3:53 PM65 °FMore clouds than sun.3 mph63%29.60 "Hg10 mi
2:53 PM66 °FBroken clouds.3 mph59%29.61 "Hg10 mi
1:53 PM63 °FSunny.7 mph68%29.63 "Hg10 mi
1:00 PM59 °FThundershowers. Fog.5 mph87%29.67 "Hg4 mi
11:53 AM60 °FLight rain. Mostly cloudy.6 mph75%29.67 "Hg4 mi
10:53 AM62 °FPartly sunny.3 mph73%29.68 "Hg6 mi
10:00 AM61 °FBroken clouds.3 mph78%29.70 "Hg6 mi
9:00 AM59 °FMostly cloudy.3 mph81%29.71 "Hg4 mi
8:00 AM59 °FPartly sunny.No wind84%29.72 "Hg2 mi
7:00 AM57 °FLow clouds.No wind90%29.72 "Hg7 mi
Weather by CustomWeather, © 2016

See weather overviewHow to use our weather pages